This is the latest recevied weather packets stored in our database for station/object K2ATL. If no packets are shown the sender has not sent any weather packets the latest 10 day(s).
| Time | Temp. | Humidity | Pressure | Rain* | Wind** | Luminosity | Snow |
|---|---|---|---|---|---|---|---|
| 1788049139 | 22.78° C | 94% | 1106.1 hPa | 0 mm | - | 1 W/m² | - |
| 1788048834 | 22.78° C | 94% | 1106.1 hPa | 0 mm | - | 1 W/m² | - |
| 1788048535 | 22.78° C | 93% | 1105.8 hPa | 0 mm | - | 3 W/m² | - |
| 1788048233 | 22.78° C | 92% | 1106.1 hPa | 0 mm | - | 5 W/m² | - |
| 1788047930 | 22.78° C | 93% | 1106.1 hPa | 0 mm | - | 8 W/m² | - |
| 1788047625 | 23.33° C | 93% | 1106.1 hPa | 0 mm | - | 10 W/m² | - |
| 1788047324 | 23.33° C | 93% | 1106.4 hPa | 0 mm | - | 14 W/m² | - |
| 1788047019 | 23.33° C | 93% | 1106.3 hPa | 0 mm | - | 21 W/m² | - |
| 1788046720 | 22.78° C | 91% | 1106.3 hPa | 0 mm | - | 28 W/m² | - |
| 1788046419 | 22.78° C | 93% | 1106.5 hPa | 0 mm | - | 30 W/m² | - |
| 1788046117 | 22.78° C | 92% | 1106.3 hPa | 0 mm | - | 31 W/m² | - |
| 1788045812 | 23.89° C | 91% | 1106.4 hPa | 0 mm | - | 34 W/m² | - |
| 1788045509 | 23.89° C | 90% | 1106.5 hPa | 0 mm | - | 34 W/m² | - |
| 1788045204 | 24.44° C | 88% | 1106.5 hPa | 0 mm | - | 54 W/m² | - |
| 1788044899 | 23.89° C | 89% | 1106.4 hPa | 0 mm | - | 76 W/m² | - |
| 1788044598 | 23.89° C | 90% | 1106.4 hPa | 0 mm | - | 63 W/m² | - |
| 1788044297 | 23.33° C | 89% | 1106.5 hPa | 0 mm | - | 66 W/m² | - |
| 1788043994 | 22.78° C | 90% | 1106.5 hPa | 0 mm | - | 70 W/m² | - |
| 1788043689 | 22.22° C | 94% | 1106.6 hPa | 0 mm | - | 111 W/m² | - |
| 1788043384 | 22.22° C | 94% | 1106.6 hPa | 0 mm | - | 49 W/m² | - |
| 1788043083 | 22.22° C | 94% | 1106.6 hPa | 0 mm | - | 50 W/m² | - |
| 1788042779 | 22.22° C | 95% | 1106.4 hPa | 0 mm | - | 53 W/m² | - |
| 1788042477 | 22.22° C | 96% | 1106.4 hPa | 0 mm | - | 44 W/m² | - |
| 1788042173 | 21.67° C | 96% | 1106.4 hPa | 0 mm | - | 62 W/m² | - |
| 1788041869 | 21.67° C | 96% | 1106.3 hPa | 0 mm | - | 75 W/m² | - |
* Rain latest hour (hover to see other rain measurements)
** Current wind speed in m/s (hover to see current wind gust speed)